Starlink 5297

operational
NORAD ID: 54158 Int'l Des: 2022-141 Owner: SPXS Country: US Constellation: starlink
LEOCIRCULAR

Über Starlink 5297

Beschreibung wird geladen...

Live-Position

3D-Globus wird geladen...

Nächste Überflüge

Höhenverlauf

Altitude vs Time

uPlot chart will show altitude changes over time

Zweizeiliger Elementsatz

1 54158U 22141B 25304.11278330 .00001509 00000-0 11287-3 0 9999
2 54158 53.2177 235.9522 0001548 102.9124 257.2041 15.08834581166158
Epoch: 31. Okt. 2025 • Age: 22 hours

Aktueller Status

Höhe 554.9 km
Geschwindigkeit 7.58 km/s
Subsatellitenpunkt -43.08°S, 49.01°E
Startdatum 28. Okt. 2022
Alter 3 years
Typ internet

Technische Details

Klassifizierung Payload
Masse 305.00 kg
Trockenmasse 290.00 kg
Gesamtmasse 305.00 kg
Länge 0.20 m
Durchmesser 2.80 m
Spannweite 9.00 m
Form Box + pan
Hersteller SPXS
Bus-Typ Starlink
Phasenstatus In Orbit
Besitzer/Staat SPXS/US

Große Konstellationen

Loading constellations...